When you browse on this site, cookies collect data to enhance your experience and personalize the content and advertising you see.
Visit our Privacy Policy to learn more. By continuing to use the site, you agree to this use of cookies and data.
  • en Suisse
  • Liste des pays
  • À 7 jours
  • Température de l'eau
  • Carte météo
  • Widgets météo
  • user-avatar
    Se connecter

    Météo par heure à Mayrhofen

    Ce jour, 25 Février, Mardi

    Heure Température Précipitation Vent Pression Humidité
    00:00 +1°C° 0 mm 2 m/s 613 mmHg 78%
    01:00 -1°C° 0 mm 2 m/s 613 mmHg 80%
    02:00 -1°C° 0 mm 2 m/s 612 mmHg 81%
    03:00 -1°C° 0 mm 2 m/s 612 mmHg 81%
    04:00 -1°C° 0 mm 2 m/s 611 mmHg 82%
    05:00 -1°C° 0 mm 2 m/s 611 mmHg 83%
    06:00 -1°C° 0 mm 2 m/s 611 mmHg 84%
    07:00 -2°C° 0 mm 2 m/s 611 mmHg 84%
    08:00 +1°C° 0 mm 1 m/s 611 mmHg 84%
    09:00 +2°C° 0 mm 1 m/s 611 mmHg 84%
    10:00 +3°C° 0 mm 1 m/s 611 mmHg 84%
    11:00 +4°C° 0 mm 1 m/s 610 mmHg 84%
    12:00 +4°C° 0 mm 1 m/s 610 mmHg 84%
    13:00 +4°C° 0 mm 1 m/s 610 mmHg 85%
    14:00 +4°C° 0.1 mm 1 m/s 609 mmHg 86%
    15:00 +3°C° 0.1 mm 1 m/s 608 mmHg 87%
    16:00 +3°C° 0.1 mm 1 m/s 608 mmHg 88%
    17:00 +2°C° 0.2 mm 1 m/s 607 mmHg 91%
    18:00 +2°C° 0.2 mm 1 m/s 607 mmHg 93%
    19:00 +1°C° 0.2 mm 1 m/s 607 mmHg 96%
    20:00 +1°C° 0.3 mm 1 m/s 606 mmHg 96%
    21:00 0°C° 0.3 mm 1 m/s 606 mmHg 95%
    22:00 -2°C° 0.3 mm 2 m/s 605 mmHg 95%
    23:00 0°C° 0.7 mm 1 m/s 605 mmHg 96%

    Demain, 26 Février, Mercredi

    Heure Température Précipitation Vent Pression Humidité
    00:00 0°C° 0.7 mm 1 m/s 605 mmHg 97%
    01:00 -1°C° 0.7 mm 1 m/s 604 mmHg 97%
    02:00 -1°C° 1.4 mm 1 m/s 604 mmHg 97%
    03:00 -2°C° 1.4 mm 1 m/s 603 mmHg 97%
    04:00 -4°C° 1.4 mm 2 m/s 602 mmHg 96%
    05:00 -5°C° 0.6 mm 2 m/s 602 mmHg 96%
    06:00 -6°C° 0.6 mm 2 m/s 601 mmHg 95%
    07:00 -7°C° 0.6 mm 2 m/s 601 mmHg 94%
    08:00 -6°C° 0.3 mm 2 m/s 601 mmHg 89%
    09:00 -6°C° 0.3 mm 2 m/s 601 mmHg 83%
    10:00 -6°C° 0.3 mm 3 m/s 601 mmHg 77%
    11:00 -5°C° 0.1 mm 3 m/s 602 mmHg 68%
    12:00 -5°C° 0.1 mm 4 m/s 602 mmHg 60%
    13:00 -5°C° 0.1 mm 4 m/s 602 mmHg 51%
    14:00 -7°C° 0.2 mm 4 m/s 602 mmHg 56%
    15:00 -8°C° 0.2 mm 4 m/s 602 mmHg 62%
    16:00 -9°C° 0.2 mm 3 m/s 602 mmHg 68%
    17:00 -10°C° 0.2 mm 3 m/s 602 mmHg 75%
    18:00 -12°C° 0.2 mm 3 m/s 602 mmHg 82%
    19:00 -10°C° 0.2 mm 2 m/s 603 mmHg 89%
    20:00 -10°C° 0.3 mm 2 m/s 604 mmHg 90%
    21:00 -10°C° 0.3 mm 2 m/s 604 mmHg 91%
    22:00 -10°C° 0.3 mm 2 m/s 605 mmHg 92%
    23:00 -10°C° 0.3 mm 2 m/s 606 mmHg 92%

    Après-demain, 27 Février, Jeudi

    Heure Température Précipitation Vent Pression Humidité
    00:00 -10°C° 0.3 mm 2 m/s 606 mmHg 92%
    01:00 -10°C° 0.3 mm 2 m/s 607 mmHg 93%
    02:00 -12°C° 0 mm 2 m/s 606 mmHg 91%
    03:00 -13°C° 0 mm 2 m/s 606 mmHg 90%
    04:00 -13°C° 0 mm 2 m/s 606 mmHg 88%
    05:00 -11°C° 0 mm 1 m/s 606 mmHg 85%
    06:00 -11°C° 0 mm 1 m/s 607 mmHg 83%
    07:00 -11°C° 0 mm 1 m/s 607 mmHg 80%
    08:00 -10°C° 0 mm 1 m/s 607 mmHg 74%
    09:00 -8°C° 0 mm 1 m/s 608 mmHg 68%
    10:00 -7°C° 0 mm 2 m/s 608 mmHg 62%
    11:00 -7°C° 0 mm 2 m/s 608 mmHg 60%
    12:00 -7°C° 0 mm 3 m/s 607 mmHg 58%
    13:00 -8°C° 0 mm 4 m/s 606 mmHg 56%
    14:00 -8°C° 0.2 mm 4 m/s 605 mmHg 61%
    15:00 -9°C° 0.2 mm 4 m/s 604 mmHg 65%
    16:00 -9°C° 0.2 mm 4 m/s 603 mmHg 70%
    17:00 -10°C° 0.4 mm 5 m/s 603 mmHg 74%
    18:00 -11°C° 0.4 mm 5 m/s 603 mmHg 77%
    19:00 -11°C° 0.4 mm 5 m/s 602 mmHg 81%
    20:00 -11°C° 0.1 mm 4 m/s 602 mmHg 82%
    21:00 -11°C° 0.1 mm 4 m/s 602 mmHg 84%
    22:00 -10°C° 0.1 mm 3 m/s 602 mmHg 86%
    23:00 -10°C° 0.3 mm 3 m/s 603 mmHg 87%

    28 Février, Vendredi

    Heure Température Précipitation Vent Pression Humidité
    00:00 -9°C° 0.3 mm 2 m/s 604 mmHg 89%
    01:00 -8°C° 0.3 mm 2 m/s 605 mmHg 91%
    02:00 -9°C° 0.4 mm 2 m/s 606 mmHg 91%
    03:00 -10°C° 0.4 mm 2 m/s 606 mmHg 92%
    04:00 -10°C° 0.4 mm 2 m/s 607 mmHg 93%
    05:00 -10°C° 0.3 mm 2 m/s 607 mmHg 93%
    06:00 -12°C° 0.3 mm 2 m/s 608 mmHg 93%
    07:00 -12°C° 0.3 mm 2 m/s 609 mmHg 93%
    08:00 -10°C° 0.1 mm 2 m/s 610 mmHg 84%
    09:00 -9°C° 0.1 mm 2 m/s 611 mmHg 76%
    10:00 -7°C° 0.1 mm 2 m/s 612 mmHg 67%
    11:00 -6°C° 0 mm 2 m/s 612 mmHg 61%
    12:00 -6°C° 0 mm 2 m/s 613 mmHg 56%
    13:00 -5°C° 0 mm 2 m/s 613 mmHg 51%
    14:00 -3°C° 0 mm 1 m/s 613 mmHg 50%
    15:00 -2°C° 0 mm 1 m/s 613 mmHg 50%
    16:00 -3°C° 0 mm 0 m/s 613 mmHg 50%
    17:00 -4°C° 0 mm 1 m/s 612 mmHg 54%
    18:00 -6°C° 0 mm 1 m/s 612 mmHg 57%
    19:00 -9°C° 0 mm 2 m/s 611 mmHg 61%
    20:00 -8°C° 0 mm 2 m/s 612 mmHg 62%
    21:00 -8°C° 0 mm 2 m/s 612 mmHg 63%
    22:00 -8°C° 0 mm 2 m/s 612 mmHg 64%
    23:00 -8°C° 0 mm 2 m/s 612 mmHg 65%

    29 Février, Samedi

    Heure Température Précipitation Vent Pression Humidité
    00:00 -8°C° 0 mm 2 m/s 611 mmHg 66%
    01:00 -9°C° 0 mm 3 m/s 611 mmHg 68%
    02:00 -9°C° 0 mm 3 m/s 611 mmHg 68%
    03:00 -9°C° 0 mm 3 m/s 610 mmHg 69%
    04:00 -9°C° 0 mm 3 m/s 610 mmHg 69%
    05:00 -9°C° 0 mm 3 m/s 609 mmHg 71%
    06:00 -9°C° 0 mm 3 m/s 609 mmHg 72%
    07:00 -9°C° 0 mm 3 m/s 609 mmHg 74%
    08:00 -8°C° 0 mm 3 m/s 609 mmHg 73%
    09:00 -6°C° 0 mm 3 m/s 609 mmHg 73%
    10:00 -5°C° 0 mm 4 m/s 609 mmHg 73%
    11:00 -4°C° 0 mm 4 m/s 609 mmHg 73%
    12:00 -3°C° 0 mm 4 m/s 609 mmHg 72%
    13:00 -2°C° 0 mm 3 m/s 608 mmHg 72%
    14:00 -3°C° 0 mm 4 m/s 608 mmHg 72%
    15:00 -3°C° 0 mm 4 m/s 607 mmHg 71%
    16:00 -3°C° 0 mm 4 m/s 607 mmHg 71%
    17:00 -5°C° 0 mm 4 m/s 606 mmHg 73%
    18:00 -7°C° 0 mm 4 m/s 606 mmHg 76%
    19:00 -7°C° 0 mm 3 m/s 606 mmHg 78%
    20:00 -7°C° 0.2 mm 3 m/s 606 mmHg 82%
    21:00 -7°C° 0.2 mm 2 m/s 607 mmHg 85%
    22:00 -6°C° 0.2 mm 1 m/s 607 mmHg 89%
    23:00 -6°C° 0.5 mm 1 m/s 607 mmHg 91%

    1 Mars, Dimanche

    Heure Température Précipitation Vent Pression Humidité
    00:00 -6°C° 0.5 mm 1 m/s 607 mmHg 93%
    01:00 -6°C° 0.5 mm 1 m/s 607 mmHg 95%
    02:00 -6°C° 0.6 mm 1 m/s 607 mmHg 95%
    03:00 -6°C° 0.6 mm 1 m/s 607 mmHg 95%
    04:00 -6°C° 0.6 mm 1 m/s 607 mmHg 95%
    05:00 -6°C° 0.1 mm 1 m/s 606 mmHg 94%
    06:00 -7°C° 0.1 mm 1 m/s 606 mmHg 93%
    07:00 -8°C° 0.1 mm 1 m/s 606 mmHg 92%
    08:00 -6°C° 0 mm 1 m/s 607 mmHg 88%
    09:00 -4°C° 0 mm 1 m/s 608 mmHg 83%
    10:00 -2°C° 0 mm 1 m/s 608 mmHg 79%
    11:00 -2°C° 0 mm 1 m/s 608 mmHg 78%
    12:00 -1°C° 0 mm 1 m/s 608 mmHg 77%
    13:00 -1°C° 0 mm 1 m/s 608 mmHg 77%
    14:00 -1°C° 0 mm 1 m/s 608 mmHg 76%
    15:00 -1°C° 0 mm 1 m/s 608 mmHg 76%
    16:00 -1°C° 0 mm 1 m/s 608 mmHg 76%
    17:00 -2°C° 0 mm 1 m/s 608 mmHg 80%
    18:00 -4°C° 0 mm 1 m/s 607 mmHg 85%
    19:00 -6°C° 0 mm 1 m/s 607 mmHg 89%
    20:00 -7°C° 0 mm 1 m/s 607 mmHg 88%
    21:00 -7°C° 0 mm 1 m/s 607 mmHg 87%
    22:00 -7°C° 0 mm 1 m/s 607 mmHg 86%
    23:00 -8°C° 0.1 mm 2 m/s 607 mmHg 88%
    Voir plus